Regional Weather Roundup
Issued by NWS

Home | Current Version | Previous Version | Text Only | Print | Product List | Glossary Off
Versions: 1 2 3 4 5 6 7 8 9 10 11 12 13 14 15 16 17 18 19 20 21 22 23 24 25 26 27 28 29 30 31 32 33 34 35 36 37 38 39 40 41 42 43 44 45 46 47 48 49 50

000
ASUS43 KIND 270209
RWRIN

WEATHER ROUNDUP FOR INDIANA
NATIONAL WEATHER SERVICE INDIANAPOLIS IN
1000 PM EDT THU MAR 26 2015

NOTE: "FAIR" INDICATES FEW OR NO CLOUDS BELOW 12,000 FEET WITH NO
SIGNIFICANT WEATHER AND/OR OBSTRUCTIONS TO VISIBILITY.

* - STATION DOES NOT REPORT WEATHER SUCH AS PRECIPITATION OR FOG.

+ - STATION NOT QUALITY CONTROLLED BY THE NATIONAL WEATHER SERVICE.
    USE DATA WITH CAUTION...ESPECIALLY DEWPOINT AND RELATIVE
    HUMIDITY OBSERVATIONS.

INZ001>003-010>013-019-020-270300-
NORTHWEST INDIANA

CITY           SKY/WX    TMP DP  RH WIND       PRES   REMARKS
GARY /AIRPORT/ MOCLDY    37  23  56 NE7       30.05R
KNOX *+          N/A     32  16  51 N10       30.02R WCI  24
LA PORTE +     CLOUDY    35  28  74 N8        30.03R WCI  28
MICHIGAN CITY+ CLOUDY    32  23  69 N6        30.04R WCI  26
MONTICELLO +   CLOUDY    36  26  65 N12       30.02R
RENSSELAER +   PTCLDY    34  28  80 N5        30.04R WCI  30
VALPARAISO     CLOUDY    34  25  69 N6        30.04R WCI  29

$$

LMZ046-743>745-270300-
SOUTHERN LAKE MICHIGAN

STATION/POSITION TIME  TEMP WIND        PRES
                       AIR  DIR/SP/G
                 (UTC) (F)  (DEG/KT/KT) (MB)
BURNS HARBOR     0200   35   30/  8/ 11 1017.6R
MICHIGAN CITY    0200   33  360/ 11/ 13   N/A

$$

INZ004-005-014>016-021>024-270300-
NORTH CENTRAL INDIANA

CITY           SKY/WX    TMP DP  RH WIND       PRES   REMARKS
GOSHEN         CLOUDY    32  24  72 NW9       30.00R WCI  24
LOGANSPORT +   CLOUDY    36  27  69 N9        30.02R
PERU/GRISSOM   CLOUDY    37  26  63 N9        29.98R
ROCHESTER +    CLOUDY    36  28  75 N6        30.02R
SOUTH BEND     CLOUDY    34  25  69 N9        30.02R WCI  27
WARSAW +       CLOUDY    32  27  80 N9        30.00R WCI  24

$$

INZ006>009-017-018-025>027-270300-
NORTHEAST INDIANA

CITY           SKY/WX    TMP DP  RH WIND       PRES   REMARKS
ANGOLA *+      CLOUDY    34  25  69 NW9       29.96S WCI  26
AUBURN +       CLOUDY    36  23  60 NW6       29.98S
FORT WAYNE     MOCLDY    34  24  67 NW7       29.98R WCI  28
HUNTINGTON +   CLOUDY    35  21  57 NW5       29.98R WCI  31

$$

INZ028-029-035-036-043>045-051>053-270300-
WEST CENTRAL INDIANA

CITY           SKY/WX    TMP DP  RH WIND       PRES   REMARKS
CRAWFORDSVL +  FAIR      35  23  61 MISG      30.01R
GREENCASTLE +  CLEAR     37  27  65 NW9       29.99S
LAFAYETTE      CLEAR     36  24  62 NW12      30.02R
TERRE HAUTE    CLEAR     41  29  62 N9        30.01R

$$

INZ030>032-037>040-046>048-054>057-064-065-270300-
CENTRAL INDIANA

CITY           SKY/WX    TMP DP  RH WIND       PRES   REMARKS
CP ATTERBURY + CLEAR     37  32  81 CALM      29.99R
COLUMBUS       PTCLDY    37  30  75 W3        29.99R
FRANKFORT +    CLEAR     37  28  72 W9        30.01S
GREENWOOD *+   CLEAR     39  27  60 NW8       29.98R
INDIANAPOLIS   PTCLDY    37  28  70 NW7       29.96S
-EAGLE CREEK   CLEAR     38  29  70 NW9       29.97R
KOKOMO *+        N/A     37  27  65 N7        29.99R
MARION +       CLEAR     35  26  69 N7        29.98S WCI  29
MT COMFORT *+  CLEAR     37  23  56 NW8       29.97S
SHELBYVILLE    PTCLDY    40  30  67 NW5       29.97R
ZIONSVILLE +   CLEAR     37  27  67 NW9       29.98S

$$

INZ033-034-041-042-049-050-058-059-270300-
EAST CENTRAL INDIANA

CITY           SKY/WX    TMP DP  RH WIND       PRES   REMARKS
MUNCIE         MOCLDY    36  28  73 N6        29.97R

$$

INZ060-061-067>069-081>083-085>088-270300-
SOUTHWEST INDIANA

CITY           SKY/WX    TMP DP  RH WIND       PRES   REMARKS
EVANSVILLE     PTCLDY    41  33  73 W3        30.04R
HUNTINGBURG *+ PTCLDY    39  30  70 NW5       30.02R
WASHINGTON +   PTCLDY    39  32  77 NW7       30.01R

$$

INZ062-063-066-070>080-084-089>092-270300-
SOUTH CENTRAL AND SOUTHEAST INDIANA

CITY           SKY/WX    TMP DP  RH WIND       PRES   REMARKS
BEDFORD +      CLOUDY    37  32  81 CALM      30.00R
BLOOMINGTON    PTCLDY    35  30  82 CALM      29.98S
NORTH VERNON + CLOUDY    39  36  87 W3        29.99R
SEYMOUR +      CLOUDY    41  34  75 CALM      30.00R

$$



USA.gov is the U.S. government's official web portal to all federal, state and local government web resources and services.